Location: Battery Park City
(40.7115°N, 74.0163°W)
Time: 15:02:25
(UTC+00:00)

Cosmos 1862 Rocket - Pass Details

Date: 08 December 2019
Orbit: 604 x 634 km, 82.5° (Epoch: 27 January)

Event Time Altitude Azimuth Distance (km) Brightness Sun altitude
Rises 22:39:32 0° 194° (SSW) 2,850 7.5 -13.1°
Reaches altitude 10° 22:41:45 10° 198° (SSW) 1,954 6.6 -13.5°
Maximum altitude 22:46:02 63° 279° (W) 687 4.0 -14.3°
Drops below altitude 10° 22:50:24 10° 1° (N) 1,986 6.0 -15.0°
Sets 22:52:40 0° 5° (N) 2,901 6.8 -15.5°
